[[{"header":{"parameterUnit":"m.s-1","parameterCategory":1,"la1":30.2991,"la2":30.254,"lo1":-89.0895,"lo2":-89.0444,"dy":0.0017,"dx":0.0017,"nx":28,"ny":28,"refTime":"2024-08-10T15:00:00:Z","depth":0,"parameterNumber":2,"parameterNumberName":"U-component_of_WINDS"},"data":[0,0,0,0,0,0,0,0,0,0,0,0,0,0,0,0,0,0,0,0,0,0,0,0,0,0,0,0,0,0,0,0,0,0,0,0,0,0,0,0,0,0,0,0,0,0,0,0,0,0,0,0,0,0,0,0,0,0,0.8922,0.8924,0,0.9054,0.9055,0.9057,0.9035,0.9032,0.903,0.9028,0.9167,0.9172,0.9178,0,0,0,0,0,0,0,0,0,0,0,0,0,0.8656,0.8661,0.8922,0.8924,0.8926,0.9053,0.9055,0.9057,0.9035,0.9032,0.9029,0.9027,0.9165,0.9172,0.9179,0,0,0,0,0,0,0,0,0,0,0,0,0,0.8778,0.8662,0.8922,0.893,0.8932,0.9053,0.9055,0.9057,0.9036,0.9032,0.9029,0.9025,0.9163,0.9171,0.918,0.9303,0,0,0.9206,0.921,0,0,0,0,0,0,0,0,0.8771,0.8788,0.8927,0.8929,0.8932,0.9024,0.9012,0.914,0.9036,0.8996,0.9028,0.9024,0.9122,0.9134,0.9167,0.9309,0.9315,0.9207,0.9213,0.9216,0.9219,0,0,0,0,0,0,0,0.8763,0.8782,0.8974,0.8929,0.8932,0.8928,0.8941,0.9036,0.9077,0.9,0.8998,0.9014,0.9123,0.9158,0.917,0.9317,0.9207,0.9215,0.922,0.9224,0.9566,0.957,0,0,0,0,0,0,0.8751,0.8775,0.897,0.8978,0.8841,0.8935,0.8951,0.8998,0.9076,0.9085,0.9017,0.9012,0.9145,0.9159,0.9174,0.9323,0.9216,0.9224,0.9229,0.9562,0.9567,0.9571,0,0,0,0,0,0,0.8746,0.8769,0.8965,0.8876,0.8901,0.8944,0.8997,0.9002,0.9037,0.9089,0.9096,0.9045,0.9143,0.9162,0.927,0.9327,0.9228,0.9236,0.9558,0.9564,0.9569,0.9621,0,0,0,0,0,0,0.8738,0.8767,0.8813,0.8877,0.8906,0.9058,0.9001,0.9008,0.9052,0.9048,0.9117,0.9126,0.9142,0.9257,0.9279,0.9338,0.9243,0.9553,0.9561,0.9567,0.9614,0.9628,0.9639,0,0,0,0,0,0.8729,0.8824,0.8816,0.884,0.8965,0.9061,0.9077,0.9093,0.9057,0.9104,0.9137,0.9123,0.9317,0.9269,0.9293,0.9355,0.955,0.9558,0.9567,0.9609,0.9625,0.9639,0,0,0,0,0,0,0.8767,0.8833,0.8824,0.8943,0.8996,0.9057,0.9118,0.911,0.9176,0.9169,0.9186,0.9202,0.9312,0.9344,0.9289,0.9477,0.9429,0.9443,0.9452,0.9468,0.948,0.947,0.925,0,0,0,0,0,0.8789,0.8861,0.8915,0.9014,0.9041,0.9075,0.9118,0.9124,0.9181,0.9204,0.9245,0.9302,0.9375,0.9423,0.9494,0.9619,0.9633,0.9673,0.9686,0.9695,0.9707,0.9775,0.9793,0.96,0.96,0.9599,0,0,0.8836,0.8881,0.8925,0.9023,0.9065,0.914,0.9094,0.9176,0.9231,0.9217,0.9321,0.9353,0.9417,0.9534,0.9587,0.9564,0.9764,0.9707,0.9714,0.9721,0.9785,0.9804,0.982,0.9606,0.9605,0.9604,0,0,0.896,0.9001,0.9087,0.913,0.9194,0.9215,0.9236,0.9298,0.9318,0.9422,0.9413,0.948,0.9607,0.9652,0.9692,0.9832,0.9821,0.9854,0.9919,0.9985,1.0,1.0013,1.0062,1.008,0.9866,0.9866,0.9866,0,0.901,0.9121,0.9134,0.9215,0.9259,0.9247,0.9335,0.9377,0.9461,0.9492,0.9464,0.9622,0.9665,0.9791,0.9825,0.9858,0.9882,0.9847,0.9996,1.001,1.0023,1.007,1.0088,0.987,0.9869,0.9869,0.9869,0,0.918,0.9257,0.932,0.9399,0.945,0.9535,0.9561,0.961,0.9613,0.9637,0.9743,0.9794,0.9874,0.9904,0.9908,1.0031,1.0015,0.9992,0.9943,1.0045,1.0089,1.0107,0.9875,0.9873,0.9872,0.9872,0,0,0.9332,0.9416,0.9439,0.9474,0.9543,0.9604,0.9688,0.9765,0.9807,0.9865,0.9936,1.0043,1.0022,1.0067,1.0076,1.0133,1.0239,1.0103,1.0105,1.0126,1.0377,1.0393,1.0414,1.0232,1.0236,1.0239,1.0371,0,0.9462,0.9609,0.9622,0.9755,0.9826,0.9815,0.9889,0.9939,0.9964,1.0029,1.0057,1.0132,1.0098,1.0125,1.0182,1.0214,1.029,1.0205,1.0299,1.0302,1.0283,1.0437,1.0455,1.0578,1.0389,1.0392,1.0394,0,0.9632,0.9694,0.9833,0.989,0.9921,0.9986,1.0057,1.0119,1.0176,1.019,1.024,1.0241,1.0328,1.0276,1.0396,1.0338,1.0377,1.0399,1.0404,1.0413,1.0354,1.045,1.0617,1.0635,1.0422,1.0419,1.0417,0,0.9728,0.9846,0.9944,0.9975,1.0045,1.0091,1.0123,1.0176,1.0221,1.0283,1.0312,1.0385,1.0424,1.048,1.05,1.0461,1.062,1.057,1.0634,1.0634,1.0668,1.0666,1.0843,1.0694,1.0694,1.0694,1.0693,0,0.9871,0.9957,0.9988,1.0048,1.0143,1.0158,1.0252,1.0282,1.0329,1.0395,1.0392,1.0454,1.0477,1.0544,1.056,1.0657,1.0675,1.0689,1.0692,1.0689,1.0687,1.0715,1.0707,1.0699,1.0698,1.0697,1.0696,0,0.9995,1.0019,1.0125,1.0182,1.0198,1.0266,1.0315,1.0374,1.0397,1.0481,1.0501,1.0539,1.0616,1.0642,1.0737,1.0748,1.086,1.0857,1.084,1.0841,1.0903,1.0897,1.1105,1.1133,1.0966,1.0968,1.0969,0,1.0084,1.0149,1.0212,1.0255,1.0288,1.0359,1.0403,1.042,1.0468,1.0537,1.0587,1.0664,1.0726,1.0851,1.0887,1.0959,1.0957,1.1025,1.0968,1.0962,1.0957,1.0952,1.0958,1.1035,1.1037,1.1038,1.104,0,1.0239,1.0248,1.0312,1.0381,1.0434,1.0489,1.0543,1.0579,1.0603,1.0657,1.0735,1.0783,1.0879,1.0955,1.1028,1.1062,1.1055,1.1057,1.1076,1.1073,1.106,1.1067,1.0869,1.1052,1.1051,1.105,1.1049,1.1049,1.0348,1.0405,1.0458,1.0529,1.0571,1.062,1.0677,1.0707,1.0773,1.085,1.0857,1.0942,1.0996,1.1094,1.1131,1.1197,1.1178,1.1206,1.1212,1.1219,1.1223,1.105,1.1211,1.1211,1.121,1.121,1.121,0,1.0502,1.0536,1.0601,1.0675,1.0731,1.0718,1.0777,1.0825,1.0899,1.095,1.101,1.11,1.1174,1.1215,1.1288,1.1334,1.1332,1.1353,1.1349,1.1357,1.1236,1.1212,1.1352,1.1352,1.1352,1.1352,1.1352,1.1352,1.0589,1.0684,1.0699,1.0814,1.0847,1.0929,1.0963,1.1009,1.1049,1.1149,1.1209,1.1235,1.1283,1.1359,1.1426,1.1436,1.1463,1.1485,1.1493,1.138,1.1365,1.1351,1.1329,1.1491,1.1491,1.1608,1.1609,1.1609]},{"header":{"parameterUnit":"m.s-1","parameterCategory":1,"la1":30.2991,"la2":30.254,"lo1":-89.0895,"lo2":-89.0444,"dy":0.0017,"dx":0.0017,"nx":28,"ny":28,"refTime":"2024-08-10T15:00:00:Z","depth":0,"parameterNumber":3,"parameterNumberName":"V-component_of_WINDS"},"data":[0,0,0,0,0,0,0,0,0,0,0,0,0,0,0,0,0,0,0,0,0,0,0,0,0,0,0,0,0,0,0,0,0,0,0,0,0,0,0,0,0,0,0,0,0,0,0,0,0,0,0,0,0,0,0,0,0,0,1.8266,1.8266,0,1.8319,1.8319,1.832,1.8261,1.8259,1.8257,1.8254,1.831,1.8314,1.8317,0,0,0,0,0,0,0,0,0,0,0,0,0,1.8112,1.8115,1.8266,1.8267,1.8267,1.8319,1.8319,1.832,1.8261,1.8259,1.8256,1.8253,1.8309,1.8313,1.8318,0,0,0,0,0,0,0,0,0,0,0,0,0,1.8174,1.8116,1.8266,1.8244,1.8243,1.8319,1.8319,1.832,1.8262,1.8259,1.8255,1.8252,1.8308,1.8313,1.8318,1.8419,0,0,1.8335,1.8337,0,0,0,0,0,0,0,0,1.817,1.8179,1.8247,1.8246,1.8244,1.828,1.8286,1.8353,1.8263,1.8255,1.8254,1.825,1.8303,1.8309,1.8326,1.8421,1.8424,1.8335,1.8338,1.8341,1.8342,0,0,0,0,0,0,0,1.8166,1.8177,1.8287,1.8248,1.8246,1.8231,1.8236,1.8298,1.8297,1.8255,1.8251,1.8258,1.8302,1.8321,1.8327,1.8425,1.8335,1.834,1.8343,1.8345,1.8598,1.8601,0,0,0,0,0,0,1.8164,1.8173,1.8285,1.8288,1.8198,1.8237,1.8242,1.8272,1.8296,1.8297,1.8261,1.8255,1.8313,1.8321,1.8329,1.8442,1.8341,1.8346,1.8349,1.8594,1.8598,1.8602,0,0,0,0,0,0,1.8161,1.8175,1.8283,1.823,1.8242,1.8243,1.8277,1.8275,1.8294,1.83,1.83,1.8281,1.8311,1.8321,1.8395,1.8443,1.8348,1.8353,1.859,1.8596,1.86,1.8674,0,0,0,0,0,0,1.8157,1.8174,1.8213,1.8231,1.8245,1.8349,1.828,1.8278,1.8303,1.8296,1.8319,1.832,1.8309,1.8387,1.84,1.8449,1.8357,1.8586,1.8593,1.8599,1.8667,1.8681,1.8693,0,0,0,0,0,1.8152,1.8234,1.8215,1.8229,1.8294,1.8353,1.8361,1.8346,1.8307,1.8345,1.8349,1.8319,1.8437,1.8395,1.841,1.8461,1.8583,1.8591,1.8598,1.8661,1.8678,1.8693,0,0,0,0,0,0,1.8223,1.8236,1.8216,1.8306,1.8328,1.8342,1.839,1.8366,1.8401,1.8393,1.8374,1.838,1.8457,1.8467,1.8421,1.8556,1.8503,1.8514,1.8546,1.8562,1.8575,1.8569,1.8362,0,0,0,0,0,1.8249,1.8296,1.8304,1.8383,1.8395,1.8391,1.8416,1.8402,1.8425,1.8435,1.8444,1.8467,1.8508,1.8537,1.8576,1.8669,1.867,1.8711,1.8724,1.8734,1.8743,1.8787,1.8803,1.8628,1.8628,1.8628,0,0,1.8304,1.8317,1.8347,1.8397,1.8413,1.8459,1.8399,1.8453,1.8486,1.8443,1.8511,1.8519,1.8544,1.8626,1.8663,1.8636,1.8792,1.8744,1.8753,1.8756,1.8797,1.8813,1.8828,1.8633,1.8632,1.8632,0,0,1.8426,1.8443,1.8506,1.8522,1.8546,1.8542,1.8557,1.8574,1.8576,1.8645,1.8611,1.8651,1.8725,1.8742,1.876,1.8884,1.8855,1.8897,1.8963,1.9006,1.902,1.9032,1.9071,1.9085,1.8907,1.8907,1.8907,0,1.8491,1.856,1.8543,1.8596,1.8617,1.8578,1.8641,1.8658,1.8694,1.8709,1.8679,1.8766,1.8781,1.8863,1.8892,1.8911,1.8924,1.8893,1.902,1.9031,1.9042,1.9079,1.9094,1.8911,1.8911,1.891,1.891,0,1.8636,1.8684,1.8733,1.8764,1.8791,1.885,1.884,1.8869,1.8853,1.8851,1.8918,1.8934,1.8972,1.8992,1.8979,1.9071,1.9053,1.9023,1.8968,1.9064,1.9097,1.9112,1.8918,1.8916,1.8915,1.8914,0,0,1.8805,1.8823,1.8841,1.8852,1.8873,1.891,1.8965,1.9001,1.9024,1.905,1.9092,1.9154,1.9123,1.9144,1.9131,1.917,1.9259,1.9133,1.9133,1.9151,1.9356,1.9375,1.9392,1.9242,1.9244,1.9247,1.9352,0,1.8923,1.9016,1.9,1.909,1.9131,1.9093,1.914,1.9158,1.9157,1.9191,1.9191,1.9232,1.9192,1.9203,1.924,1.924,1.9299,1.9233,1.9278,1.928,1.9269,1.9411,1.9433,1.9532,1.9365,1.9368,1.937,0,1.9073,1.91,1.9193,1.9202,1.9218,1.9261,1.9289,1.9324,1.9342,1.9338,1.9359,1.9338,1.939,1.9338,1.9407,1.9363,1.9381,1.9384,1.9387,1.9387,1.9328,1.941,1.9564,1.9577,1.9391,1.9389,1.9388,0,1.9179,1.924,1.9301,1.9313,1.9327,1.9357,1.9364,1.9378,1.9399,1.9425,1.9437,1.947,1.9486,1.9511,1.9498,1.9462,1.9568,1.9516,1.9564,1.9564,1.9586,1.9584,1.9739,1.9605,1.9605,1.9605,1.9604,0,1.931,1.9367,1.9348,1.9386,1.9448,1.9429,1.949,1.9493,1.9505,1.9541,1.9512,1.9547,1.953,1.9563,1.9554,1.961,1.9619,1.9616,1.9612,1.9616,1.9615,1.9624,1.9615,1.9608,1.9608,1.9607,1.9606,0,1.9439,1.9429,1.9492,1.9499,1.9501,1.9546,1.9551,1.9585,1.9581,1.9627,1.9637,1.9631,1.9667,1.9658,1.9699,1.9693,1.9761,1.9752,1.9755,1.975,1.9797,1.979,1.996,1.9979,1.9837,1.9838,1.984,0,1.952,1.9562,1.9571,1.9592,1.9601,1.9636,1.9656,1.9638,1.966,1.968,1.971,1.9744,1.977,1.983,1.9829,1.9859,1.9846,1.9903,1.985,1.9851,1.9841,1.9836,1.9838,1.9913,1.9914,1.9916,1.9917,0,1.9664,1.9656,1.9685,1.971,1.9734,1.9754,1.9772,1.9791,1.9774,1.98,1.9835,1.9855,1.9894,1.9926,1.9953,1.996,1.9934,1.9934,1.9945,1.9947,1.9945,1.9941,1.9778,1.9929,1.9928,1.9927,1.9926,1.9926,1.9768,1.9801,1.9811,1.9842,1.9853,1.9869,1.9899,1.9897,1.9926,1.9955,1.9944,1.9983,1.9996,2.0028,2.0038,2.0068,2.0046,2.0065,2.0068,2.0072,2.0075,1.9944,2.0074,2.0073,2.0073,2.0073,2.0072,0,1.9905,1.9908,1.9938,1.9961,1.9985,1.9958,1.9975,1.9997,2.0031,2.0045,2.0069,2.0108,2.0138,2.0138,2.0166,2.0189,2.0178,2.0197,2.0192,2.0193,2.0096,2.008,2.0205,2.0205,2.0205,2.0205,2.0205,2.0205,1.9979,2.0032,2.0024,2.008,2.0084,2.0121,2.0132,2.0145,2.0154,2.0198,2.0222,2.0222,2.0228,2.0255,2.0281,2.028,2.029,2.0312,2.0306,2.0214,2.0201,2.0188,2.0173,2.0315,2.0315,2.04,2.0401,2.0402]}]]